Krakovo, Pollando

02:00 CEST je la 20an de oktobro 2018 (GMT +0200)
Dachy Tatarczuch | | Change Station

Elev 781 ft 50.59 °N, 20.16 °E | Updated 1 minute ago

Nuboplena
Nuboplena
51.1 °F
Sentas kiel 51.1 °F
N
3.36
Vento Varianta Vento from NNOk
Gusts 4.9 mej/h

hodiaŭ
High -- | Low -- °F
--% Ebla precip.
hieraŭ
High -- | Low -- °F
Precip. -- co
Aerpremo 30.27 co
Vidodistanco 2.2 mejloj
Nuboj Pliparte nuba 900 ft
Rosopunkto 40 °F
Humido 66%
Pluvokvanto 0.00 co
Neĝprofundo Not available.
7:09 AM 5:37 PM
Kreskanta Lunĝibo, 79% visible
METAR EPKK 192330Z 24002KT 3500 BR BKN009 10/08 Q1025
Aerpremo 30.27 co
Vidodistanco 2.2 mejloj
Nuboj Pliparte nuba 900 ft
Rosopunkto 40 °F
Humido 66%
Pluvokvanto 0.00 co
Neĝprofundo Not available.
7:09 AM 5:37 PM
Kreskanta Lunĝibo, 79% visible
METAR EPKK 192330Z 24002KT 3500 BR BKN009 10/08 Q1025

Get Severe Weather Alerts

Thanks for signing up!

Be on the lookout for a verification email in your inbox.

You'll start receiving the daily forecast at 6 AM.

×

10-Day Weather Forecast

×

Almanac

Astronomio

Oct. 20, 2018 Leviĝo Subiro
Aktuala tempo
Civila krepusko
Naŭtika krepusko
Astronomia krepusko
Luno
Daŭro de videbla lumo
Daŭro de tago
Tomorrow will be .
, % of the Moon is Illuminated

Hodiaŭaj ekstremaĵoj

Country Highs Country Lows

Community

WunderPhotos

Category 6

Welcome to Category 6. This is the collective home for Weather Underground's featured writeups by Dr. Jeff Masters (right), Bob Henson (left), Chris Burt, and other regular contributors.

Nearby

Aerkvalito

  Aerkvalito Aerkvalita indico Poluanto
Not available.

Neĝa profundeco

Station Depth Alteco

Earthquake Activity

Urbo Distance Mag. Time & Date
Minimum magnitude displayed is 2.5.

Coastal Water Temperatures

Loko Temperaturo

Stations

Najbaraj veter-stacioj

Loko de stacio Temp Venta
kvazaŭtemperaturo
Rosopunkto Humido Vento Precip. Elev Ĝisdatigita je Tipo